Retour au catalogue

STARLINK-5698

ActifCommunicationsVLEO
NORAD 55623·PAYLOAD·🇺🇸 United States

Lancé Feb 12, 2023 depuis Cape Canaveral Space Force Station

Loading…

Prochains Passages (prochaines 24 heures)

TLE

FraisSource: CelesTrak SupGP

Époque: Sep 14, 2026, 20:53 UTC

1 55623C 23020BG  26257.87062500 -.00013321  00000+0 -48237-3 0  2573
2 55623  43.0040   5.8855 0001727 280.0192   2.0042 15.27593220    19

Suivez STARLINK-5698 en temps réel avec AllMySat

Download on the App Store